TimeCST,TemperatureF,Dew PointF,Humidity,Sea Level PressureIn,VisibilityMPH,Wind Direction,Wind SpeedMPH,Gust SpeedMPH,PrecipitationIn,Events,Conditions,WindDirDegrees,DateUTC
12:54 AM,39.9,28.9,65,29.72,10.0,NW,10.4,18.4,N/A,,Clear,310,2014-01-20 06:54:00
1:54 AM,37.9,28.9,70,29.75,10.0,NW,9.2,19.6,N/A,,Clear,320,2014-01-20 07:54:00
2:20 AM,37.9,28.9,70,29.75,10.0,NNW,10.4,20.7,N/A,,Mostly Cloudy,330,2014-01-20 08:20:00
2:54 AM,37.0,28.0,70,29.79,10.0,NW,12.7,20.7,N/A,,Overcast,320,2014-01-20 08:54:00
3:54 AM,36.0,28.0,73,29.81,10.0,NNW,5.8,-,N/A,,Mostly Cloudy,330,2014-01-20 09:54:00
4:01 AM,36.0,27.0,70,29.80,10.0,NW,5.8,-,N/A,,Scattered Clouds,320,2014-01-20 10:01:00
4:54 AM,34.0,27.0,75,29.83,10.0,WNW,4.6,-,N/A,,Clear,300,2014-01-20 10:54:00
5:54 AM,30.9,26.1,82,29.86,10.0,West,4.6,-,N/A,,Clear,260,2014-01-20 11:54:00
6:54 AM,30.0,25.0,82,29.88,10.0,West,3.5,-,N/A,,Clear,270,2014-01-20 12:54:00
7:54 AM,30.0,25.0,82,29.88,7.0,WSW,4.6,-,N/A,,Clear,250,2014-01-20 13:54:00
8:54 AM,33.1,27.0,78,29.91,9.0,WNW,8.1,-,N/A,,Clear,290,2014-01-20 14:54:00
9:54 AM,36.0,27.0,70,29.93,10.0,West,9.2,-,N/A,,Clear,280,2014-01-20 15:54:00
10:54 AM,37.9,27.0,65,29.95,10.0,WNW,8.1,-,N/A,,Clear,300,2014-01-20 16:54:00
11:54 AM,39.0,28.0,65,29.93,10.0,NW,9.2,-,N/A,,Clear,320,2014-01-20 17:54:00
12:54 PM,39.9,27.0,60,29.92,10.0,North,9.2,-,N/A,,Partly Cloudy,350,2014-01-20 18:54:00
1:22 PM,39.0,27.0,62,29.90,10.0,NNW,6.9,-,N/A,,Mostly Cloudy,330,2014-01-20 19:22:00
1:54 PM,39.0,28.0,65,29.92,10.0,NNW,4.6,-,N/A,,Overcast,330,2014-01-20 19:54:00
2:54 PM,39.9,28.9,65,29.93,10.0,NNW,8.1,-,N/A,,Scattered Clouds,340,2014-01-20 20:54:00
3:54 PM,37.0,28.0,70,29.94,10.0,NW,5.8,-,N/A,,Clear,320,2014-01-20 21:54:00
4:54 PM,36.0,27.0,70,29.94,10.0,Calm,Calm,-,N/A,,Mostly Cloudy,0,2014-01-20 22:54:00
5:54 PM,35.1,27.0,72,29.96,10.0,NE,3.5,-,N/A,,Overcast,40,2014-01-20 23:54:00
6:54 PM,34.0,27.0,75,29.97,10.0,North,3.5,-,N/A,,Overcast,360,2014-01-21 00:54:00
7:54 PM,34.0,27.0,75,29.96,5.0,NE,5.8,-,0.00,Snow,Light Snow,40,2014-01-21 01:54:00
8:01 PM,33.1,27.0,78,29.94,7.0,NE,5.8,-,0.00,,Overcast,40,2014-01-21 02:01:00
8:43 PM,32.0,27.0,82,29.93,0.8,NNE,5.8,-,0.00,Snow,Light Snow,20,2014-01-21 02:43:00
8:54 PM,32.0,28.0,85,29.95,0.8,NE,8.1,-,0.01,Snow,Light Snow,40,2014-01-21 02:54:00
9:04 PM,30.9,28.0,89,29.92,1.0,NE,6.9,-,0.00,Snow,Light Snow,50,2014-01-21 03:04:00
9:15 PM,30.9,28.9,92,29.92,1.2,NE,6.9,-,0.01,Snow,Light Snow,50,2014-01-21 03:15:00
9:28 PM,30.9,28.0,89,29.93,0.8,NE,10.4,-,0.02,Snow,Light Snow,40,2014-01-21 03:28:00
9:42 PM,30.9,28.0,89,29.93,0.8,NNE,8.1,-,0.03,Snow,Light Snow,30,2014-01-21 03:42:00
9:54 PM,30.0,26.1,85,29.95,0.5,NE,19.6,28.8,0.04,Fog-Snow,Snow,40,2014-01-21 03:54:00
10:54 PM,21.0,16.0,81,30.02,0.5,NNE,12.7,23.0,0.04,Snow,Snow,20,2014-01-21 04:54:00
11:23 PM,19.0,14.0,81,30.01,0.8,NNE,19.6,26.5,0.01,Snow,Light Snow,30,2014-01-21 05:23:00
11:36 PM,19.0,14.0,81,30.02,1.0,NNE,13.8,28.8,0.02,Snow,Light Snow,30,2014-01-21 05:36:00
11:54 PM,18.0,12.9,81,30.06,1.0,NNE,17.3,25.3,0.02,Snow,Light Snow,30,2014-01-21 05:54:00